DateTime,F1_A11,F1_S11,BsB_S11,BsG_S11,BsR_S11,BbsB_S11,BbsG_S11,BbsR_S11,BaB_A11,BaG_A11,BaR_A11,T_S11,U_S11,P_S11,T1_A11
2016-04-29T00:00:00Z,0000380,21000600,,,,,,,,,,27.8,00.6,0677.5,34.9
2016-04-29T00:01:00Z,0000380,21000600,,,,,,,,,,27.8,00.6,0677.5,34.9
2016-04-29T00:02:00Z,0000380,21000600,,,,,,,,,,27.8,00.6,0677.5,34.9
2016-04-29T00:03:00Z,0000380,61000600,,,,,,,,,,27.8,00.6,0677.4,34.9
2016-04-29T00:04:00Z,0000380,41000600,-000.60,0000.35,0000.11,-000.22,0000.42,0000.20,-000.02,-000.00,0000.10,27.8,00.7,0678.2,34.9
2016-04-29T00:05:00Z,0000380,01000600,0000.00,0000.21,-000.67,0000.53,-000.17,-000.13,-000.02,0000.01,-000.12,27.8,00.6,0678.3,34.9
2016-04-29T00:06:00Z,0000380,01000600,0000.15,0000.10,0000.18,0000.42,-000.05,0000.30,-000.06,-000.02,0000.09,27.8,00.6,0678.3,34.9
2016-04-29T00:07:00Z,0000380,01000600,-000.31,0000.05,-000.05,0000.47,-000.11,-000.14,0000.14,0000.16,-000.04,27.8,00.6,0678.3,34.9
2016-04-29T00:08:00Z,0000380,01000600,-000.67,0000.09,-000.29,0000.42,0000.11,0000.38,0000.03,0000.12,0000.16,27.8,00.6,0678.3,34.9
2016-04-29T00:09:00Z,0000380,01000600,-000.07,0000.26,0000.17,0000.14,-000.06,0000.22,0000.11,-000.01,-000.15,27.8,00.6,0678.3,34.9
2016-04-29T00:10:00Z,0000380,01000600,0000.43,0000.64,-000.21,0000.88,0000.20,0000.16,0000.02,-000.01,-000.05,27.7,00.5,0678.2,34.9
2016-04-29T00:11:00Z,0000380,01000600,-000.11,0000.37,-000.09,-000.02,0000.47,-000.25,0000.21,-000.09,0000.23,27.7,00.6,0678.2,34.9
2016-04-29T00:12:00Z,0000380,01000600,-000.32,0000.16,0000.00,0000.27,0000.17,0000.22,-000.13,0000.17,-000.05,27.7,00.6,0678.2,34.9
2016-04-29T00:13:00Z,0000380,01000600,0000.25,-000.11,-000.02,0000.30,-000.25,0000.20,0000.18,0000.05,0000.18,27.7,00.6,0678.2,34.9
2016-04-29T00:14:00Z,0000380,01000600,0000.36,-000.48,0000.07,-000.11,0000.17,0000.05,-000.12,0000.03,-000.33,27.7,00.6,0678.2,34.9
2016-04-29T00:15:00Z,0000380,01000600,-000.16,0000.25,-000.13,-000.19,-000.05,0000.06,-000.07,-000.01,0000.20,27.7,00.5,0678.2,34.8
2016-04-29T00:16:00Z,0000380,01000600,-000.26,0000.24,0000.14,0000.38,0000.05,0000.09,0000.54,0000.21,0000.04,27.7,00.5,0678.2,34.8
2016-04-29T00:17:00Z,0000380,01000600,-000.02,0000.51,-000.14,-000.25,0000.22,0000.30,-000.06,-000.13,0000.42,27.7,00.5,0678.2,34.8
2016-04-29T00:18:00Z,0000380,01000600,-000.11,0000.21,-000.10,0000.17,0000.14,0000.09,-000.13,0000.07,-000.28,27.6,00.5,0678.1,34.8
2016-04-29T00:19:00Z,0000380,01000600,-000.34,0000.12,-000.02,-000.16,0000.11,0000.08,-000.04,-000.01,0000.01,27.6,00.5,0678.1,34.8
2016-04-29T00:20:00Z,0000380,01000600,-000.20,0000.28,0000.00,0000.95,0000.08,-000.06,0000.23,0000.12,-000.05,27.6,00.6,0678.1,34.8
2016-04-29T00:21:00Z,0000380,01000600,-000.01,0000.45,0000.07,0000.42,0000.17,0000.49,0000.06,0000.04,0000.05,27.6,00.5,0678.1,34.8
2016-04-29T00:22:00Z,0000380,01000600,-000.45,-000.12,0000.04,0000.47,-000.25,-000.05,0000.01,0000.07,0000.09,27.6,00.5,0678.1,34.8
2016-04-29T00:23:00Z,0000380,01000600,-000.04,0000.26,0000.04,0000.03,0000.41,0000.28,0000.22,0000.05,-000.18,27.6,00.5,0678.1,34.8
2016-04-29T00:24:00Z,0000380,01000600,-000.67,0000.23,-000.50,-000.28,0000.26,-000.22,-000.23,0000.02,0000.14,27.6,00.4,0678.1,34.8
2016-04-29T00:25:00Z,0000380,01000600,0000.16,0000.30,0000.14,0000.53,0000.12,-000.06,0000.14,0000.01,0000.00,27.6,00.4,0678.1,34.8
2016-04-29T00:26:00Z,0000380,01000600,0000.09,-000.30,-000.29,-000.05,0000.03,0000.09,0000.04,0000.08,0000.25,27.6,00.4,0678.1,34.8
2016-04-29T00:27:00Z,0000380,01000600,0000.02,0000.21,-000.41,-000.06,0000.22,-000.17,0000.06,0000.03,0000.04,27.6,00.4,0678.1,34.8
2016-04-29T00:28:00Z,0000380,01000600,0000.80,0000.76,-000.12,0000.33,-000.22,0000.22,-000.04,-000.05,-000.37,27.6,00.4,0678.1,34.8
2016-04-29T00:29:00Z,0000380,01000600,0000.19,0000.23,0000.10,0000.09,-000.12,0000.31,0000.15,0000.17,0000.10,27.5,00.4,0678.1,34.8
2016-04-29T00:30:00Z,0000380,01000600,-000.52,-000.12,0000.02,-000.42,-000.11,0000.19,0000.21,-000.20,0000.05,27.5,00.3,0678.1,34.7
2016-04-29T00:31:00Z,0000380,01000600,0000.05,0000.78,0000.05,-000.14,-000.06,0000.22,-000.12,0000.04,-000.08,27.5,00.3,0678.1,34.7
2016-04-29T00:32:00Z,0000380,01000600,-000.06,0000.66,0000.33,0000.56,-000.02,0000.11,0000.26,0000.19,0000.24,27.5,00.4,0678.0,34.7
2016-04-29T00:33:00Z,0000380,01000600,0000.34,0000.39,0000.07,0000.16,0000.30,0000.28,-000.25,0000.06,0000.10,27.5,00.4,0678.1,34.7
2016-04-29T00:34:00Z,0000380,01000600,-000.12,0000.51,0000.27,0000.14,0000.02,0000.16,0000.09,-000.14,-000.27,27.5,00.4,0678.1,34.7
2016-04-29T00:35:00Z,0000380,01000600,-000.34,0000.35,0000.00,0000.03,0000.17,0000.02,0000.03,0000.18,0000.14,27.5,00.3,0678.0,34.7
2016-04-29T00:36:00Z,0000380,01000600,-000.12,0000.29,-000.12,-000.20,-000.02,0000.20,0000.10,-000.22,-000.22,27.5,00.4,0678.0,34.7
2016-04-29T00:37:00Z,0000380,01000600,0000.19,0000.07,0000.24,0000.08,-000.28,0000.06,-000.16,0000.03,0000.22,27.5,00.3,0678.0,34.7
2016-04-29T00:38:00Z,0000380,01000600,0000.50,-000.10,0000.33,0000.99,0000.20,0000.05,0000.29,0000.09,0000.08,27.5,00.3,0678.0,34.7
2016-04-29T00:39:00Z,0000380,01000600,0000.17,0000.86,0000.03,-000.53,0000.17,0000.02,0000.04,0000.18,-000.01,27.4,00.4,0678.0,34.7
2016-04-29T00:40:00Z,0000380,01000600,0000.48,0000.33,0000.06,-000.41,-000.22,0000.27,-000.04,-000.06,0000.31,27.4,00.4,0678.0,34.7
2016-04-29T00:41:00Z,0000380,01000600,-000.07,0000.56,0000.04,0000.13,0000.16,-000.03,0000.28,0000.32,-000.04,27.4,00.4,0678.0,34.7
2016-04-29T00:42:00Z,0000380,01000600,-000.12,0000.04,-000.09,-000.74,0000.17,-000.09,-000.03,-000.11,0000.01,27.4,00.5,0677.9,34.7
2016-04-29T00:43:00Z,0000380,01000600,-000.02,0000.49,-000.09,-000.27,0000.14,0000.36,-000.06,-000.02,0000.04,27.3,00.4,0677.9,34.7
2016-04-29T00:44:00Z,0000380,01000600,0000.77,-000.04,-000.38,-000.13,-000.19,0000.09,0000.17,0000.00,0000.13,27.3,00.4,0677.9,34.7
2016-04-29T00:45:00Z,0000380,01000600,0000.81,0001.32,-000.36,-000.42,-000.09,-000.02,-000.10,-000.02,-000.35,27.3,00.5,0677.9,34.7
2016-04-29T00:46:00Z,0000380,01000600,0000.34,0000.56,-000.56,-000.05,-000.02,0000.34,0000.04,0000.07,0000.11,27.3,00.5,0677.9,34.7
2016-04-29T00:47:00Z,0000380,01000600,0000.11,0000.52,0000.23,-000.44,-000.02,-000.02,-000.06,0000.13,-000.03,27.3,00.5,0677.9,34.7
2016-04-29T00:48:00Z,0000380,01000600,0000.59,0000.38,0000.19,-000.44,0000.00,0000.09,0000.09,-000.03,0000.26,27.3,00.4,0677.9,34.7
2016-04-29T00:49:00Z,0000380,01000600,0000.54,0000.03,0000.13,-000.28,0000.31,0000.56,-000.03,-000.05,0000.03,27.3,00.5,0677.9,34.7
2016-04-29T00:50:00Z,0000380,01000600,0000.12,0000.34,0000.43,0000.34,0000.03,0000.39,0000.07,-000.05,-000.11,27.3,00.4,0677.8,34.7
2016-04-29T00:51:00Z,0000380,01000600,-000.06,0000.39,0000.20,-000.13,0000.09,-000.14,-000.11,0000.04,0000.03,27.3,00.4,0677.8,34.7
2016-04-29T00:52:00Z,0000380,01000600,0000.04,0000.06,0000.23,0000.11,0000.09,0000.39,0000.10,-000.02,-000.11,27.3,00.5,0677.8,34.7
2016-04-29T00:53:00Z,0000380,01000600,0000.30,-000.06,0000.15,0000.03,0000.02,0000.28,0000.03,0000.11,-000.15,27.3,00.4,0677.8,34.7
2016-04-29T00:54:00Z,0000380,01000600,-000.07,0000.62,-000.14,0000.20,-000.02,0000.16,0000.03,0000.02,0000.32,27.2,00.4,0677.8,34.7
2016-04-29T00:55:00Z,0000380,01000600,0000.17,0000.68,0000.09,0000.20,0000.06,-000.11,0000.24,0000.02,0000.19,27.2,00.4,0677.8,34.7
2016-04-29T00:56:00Z,0000380,01000600,0000.51,0000.22,-000.08,0000.20,0000.08,0000.09,0000.02,0000.04,-000.05,27.2,00.4,0677.8,34.7
2016-04-29T00:57:00Z,0000380,41000600,,,,,,,,,,,,0677.8,34.7
2016-04-29T00:58:00Z,0000380,61000600,,,,,,,,,,27.1,00.4,0676.8,34.7
2016-04-29T00:59:00Z,0000380,21000600,,,,,,,,,,27.0,00.4,0676.8,34.7
2016-04-29T01:00:00Z,0000380,21000600,,,,,,,,,,27.0,00.4,0676.8,34.7
2016-04-29T01:01:00Z,0000380,21000600,,,,,,,,,,27.0,00.4,0676.8,34.7
2016-04-29T01:02:00Z,0000380,21000600,,,,,,,,,,27.0,00.3,0676.8,34.7
2016-04-29T01:03:00Z,0000380,61000600,,,,,,,,,,27.1,00.3,0676.8,34.7
2016-04-29T01:04:00Z,0000380,41000600,-000.40,-000.37,0000.16,0000.30,-000.30,0000.42,0000.05,0000.10,0000.05,27.1,00.5,0677.5,34.7
2016-04-29T01:05:00Z,0000380,01000600,-000.45,-000.07,0000.22,0000.28,0000.23,0000.05,0000.02,0000.09,-000.03,27.0,00.5,0677.6,34.7
2016-04-29T01:06:00Z,0000380,01000600,0000.16,0000.05,0000.14,-000.41,-000.16,0000.05,0000.19,-000.12,0000.09,27.1,00.6,0677.5,34.7
2016-04-29T01:07:00Z,0000380,01000600,0000.09,0000.23,-000.17,0000.03,-000.11,-000.27,-000.20,-000.16,-000.11,27.1,00.5,0677.5,34.7
2016-04-29T01:08:00Z,0000380,01000600,0000.45,-000.22,-000.11,-000.13,0000.09,0000.25,0000.10,0000.40,0000.24,27.0,00.4,0677.5,34.7
2016-04-29T01:09:00Z,0000380,01000600,-000.29,0000.23,0000.24,0000.13,0000.14,0000.06,0000.06,-000.22,-000.15,27.0,00.5,0677.5,34.7
2016-04-29T01:10:00Z,0000380,01000600,-000.05,-000.25,0000.59,0000.13,-000.23,0000.11,0000.13,0000.19,0000.12,27.0,00.6,0677.5,34.7
2016-04-29T01:11:00Z,0000380,01000600,-000.85,-000.28,0000.41,-000.06,-000.05,0000.00,0000.05,0000.01,0000.12,27.0,00.6,0677.5,34.7
2016-04-29T01:12:00Z,0000380,01000600,-000.43,-000.23,0000.21,0000.17,-000.05,0000.05,-000.19,0000.04,0000.00,27.0,00.7,0677.4,34.7
2016-04-29T01:13:00Z,0000380,01000600,0000.76,-000.09,0000.41,0000.30,0000.06,-000.22,0000.14,-000.09,-000.12,27.0,00.7,0677.4,34.7
2016-04-29T01:14:00Z,0000380,01000600,-000.31,0000.00,-000.28,0000.03,-000.19,-000.06,0000.10,0000.12,0000.24,27.0,00.7,0677.4,34.7
2016-04-29T01:15:00Z,0000380,01000600,-000.31,0001.15,0000.32,0000.33,-000.20,0000.11,-000.04,0000.06,-000.08,27.0,00.6,0677.4,34.7
2016-04-29T01:16:00Z,0000380,01000600,0000.36,0000.64,0000.15,0000.14,0000.16,-000.20,-000.04,-000.07,-000.33,27.0,00.6,0677.4,34.7
2016-04-29T01:17:00Z,0000380,01000600,0000.44,-000.02,0000.14,-000.30,-000.51,-000.23,0000.05,-000.00,0000.31,27.0,00.5,0677.4,34.7
2016-04-29T01:18:00Z,0000380,01000600,0000.57,0000.11,0000.29,0000.48,0000.02,-000.05,0000.10,-000.16,-000.15,27.0,00.6,0677.4,34.7
2016-04-29T01:19:00Z,0000380,01000600,0000.22,0000.36,0000.37,0000.70,-000.22,-000.13,-000.25,0000.17,0000.28,27.0,00.5,0677.4,34.7
2016-04-29T01:20:00Z,0000380,01000600,-000.09,0000.46,-000.24,0000.30,-000.30,0000.22,0000.11,-000.08,-000.34,26.9,00.5,0677.4,34.7
2016-04-29T01:21:00Z,0000380,01000600,0000.33,-000.25,0000.02,0000.36,0000.23,-000.31,0000.11,0000.04,0000.28,26.9,00.4,0677.4,34.7
2016-04-29T01:22:00Z,0000380,01000600,0000.73,0000.20,0000.57,-000.16,-000.05,-000.03,0000.14,0000.24,0000.02,26.9,00.5,0677.4,34.7
2016-04-29T01:23:00Z,0000380,01000600,0000.58,0000.21,-000.26,-000.19,0000.36,-000.33,-000.16,-000.27,-000.25,26.9,00.4,0677.4,34.7
2016-04-29T01:24:00Z,0000380,01000600,0000.05,-000.17,-000.02,0000.47,-000.11,-000.05,0000.18,0000.01,0000.09,26.9,00.4,0677.4,34.7
2016-04-29T01:25:00Z,0000380,01000600,0000.54,0000.50,0000.03,-000.30,0000.14,-000.02,-000.10,0000.17,-000.12,26.9,00.4,0677.4,34.7
2016-04-29T01:26:00Z,0000380,01000600,-000.43,0000.34,0000.21,0000.25,-000.42,0000.31,0000.07,-000.10,-000.20,26.9,00.4,0677.4,34.7
2016-04-29T01:27:00Z,0000380,01000600,-000.36,-000.41,0000.13,0000.02,0000.03,-000.02,0000.23,0000.07,0000.56,26.8,00.4,0677.3,34.7
2016-04-29T01:28:00Z,0000380,01000600,0000.23,-000.48,-000.19,0000.16,0000.12,-000.09,-000.14,0000.06,0000.01,26.8,00.3,0677.3,34.7
2016-04-29T01:29:00Z,0000380,01000600,0000.73,-000.02,0000.20,0000.53,-000.44,-000.11,0000.12,0000.22,-000.19,26.8,00.4,0677.3,34.7
2016-04-29T01:30:00Z,0000380,01000600,0000.47,-000.02,0000.29,0000.45,-000.36,0000.16,0000.06,-000.00,0000.09,26.8,00.4,0677.3,34.7
2016-04-29T01:31:00Z,0000380,01010600,0000.23,0000.25,-000.08,0000.59,-000.08,-000.28,-000.04,-000.01,0000.05,26.8,00.3,0677.3,34.7
2016-04-29T01:32:00Z,0000380,01000600,-000.23,-000.29,0000.18,-000.22,-000.11,0000.44,-000.01,-000.08,0000.00,26.8,00.4,0677.2,34.7
2016-04-29T01:33:00Z,0000380,01000600,0000.34,-000.12,-000.02,0000.55,0000.00,0000.11,0000.03,0000.11,-000.17,26.8,00.3,0677.2,34.7
2016-04-29T01:34:00Z,0000380,01000600,0000.41,0000.12,-000.06,0000.34,0000.33,-000.31,0000.00,-000.01,-000.03,26.8,00.4,0677.2,34.7
2016-04-29T01:35:00Z,0000380,01000600,0000.44,-000.02,0000.25,0000.78,-000.39,-000.02,0000.09,0000.04,0000.21,26.8,00.3,0677.2,34.7
2016-04-29T01:36:00Z,0000380,01000600,0000.72,-000.05,0000.22,-000.08,-000.19,0000.22,-000.01,-000.04,0000.22,26.8,00.3,0677.2,34.7
2016-04-29T01:37:00Z,0000380,01000600,-000.50,0000.59,0000.17,-000.25,-000.28,0000.20,-000.03,0000.03,-000.26,26.8,00.3,0677.1,34.7
2016-04-29T01:38:00Z,0000380,01000600,0000.52,-000.22,0000.17,0000.73,0000.08,0000.05,0000.01,0000.00,0000.03,26.8,00.3,0677.1,34.7
2016-04-29T01:39:00Z,0000380,01000600,0000.55,-000.52,-000.11,-000.02,-000.23,-000.30,0000.00,0000.06,-000.07,26.8,00.3,0677.1,34.7
2016-04-29T01:40:00Z,0000380,01000600,0000.65,0000.02,-000.53,0000.00,-000.34,-000.06,-000.02,-000.05,0000.16,26.8,00.3,0677.1,34.7
2016-04-29T01:41:00Z,0000380,01000600,0000.26,0000.54,0000.10,0000.55,-000.16,-000.11,0000.04,0000.01,-000.29,26.8,00.3,0677.1,34.7
2016-04-29T01:42:00Z,0000380,01000600,0000.62,0000.22,-000.09,0000.19,0000.17,0000.13,0000.10,-000.00,0000.34,26.8,00.3,0677.1,34.7
2016-04-29T01:43:00Z,0000380,01000600,0000.11,-000.08,-000.04,0000.03,0000.08,0000.11,-000.15,0000.11,-000.12,26.8,00.3,0677.1,34.7
2016-04-29T01:44:00Z,0000380,01000600,0000.14,-000.06,-000.06,0000.11,-000.08,0000.00,0000.23,-000.02,0000.13,26.8,00.3,0677.0,34.7
2016-04-29T01:45:00Z,0000380,01000600,0000.32,-000.16,-000.28,0000.39,0000.22,-000.03,-000.13,0000.11,0000.02,26.8,00.3,0677.0,34.7
2016-04-29T01:46:00Z,0000380,01000600,0000.58,-000.14,0000.07,0000.50,-000.17,0000.13,0000.12,-000.09,-000.05,26.8,00.3,0677.0,34.7
2016-04-29T01:47:00Z,0000380,01000600,0000.16,0000.11,0000.00,-000.34,-000.06,0000.00,0000.14,0000.24,0000.24,26.8,00.4,0677.0,34.7
2016-04-29T01:48:00Z,0000380,01000600,0000.25,0000.10,0000.47,-000.02,-000.50,0000.14,-000.10,-000.06,-000.08,26.8,00.4,0676.9,34.7
2016-04-29T01:49:00Z,0000380,01000600,-000.14,0000.32,-000.10,0000.17,-000.22,-000.14,-000.08,-000.23,-000.08,26.8,00.4,0676.9,34.7
2016-04-29T01:50:00Z,0000380,01000600,-000.24,-000.12,0000.16,0000.20,-000.22,-000.38,-000.01,-000.03,-000.10,26.7,00.4,0676.9,34.7
2016-04-29T01:51:00Z,0000380,01000600,-000.86,0000.10,0000.27,0000.11,-000.14,-000.06,0000.13,0000.06,0000.18,26.7,00.3,0676.8,34.7
2016-04-29T01:52:00Z,0000380,01000600,0000.20,-000.30,-000.36,0000.66,0000.37,-000.16,-000.05,0000.21,0000.16,26.7,00.3,0676.9,34.7
2016-04-29T01:53:00Z,0000380,01000600,-000.11,0000.04,0000.16,0000.75,0000.05,0000.50,-000.13,-000.09,-000.35,26.7,00.5,0676.8,34.7
2016-04-29T01:54:00Z,0000380,01000600,-000.34,0000.00,-000.12,-000.41,-000.40,-000.03,0000.15,0000.04,0000.42,26.7,00.4,0676.8,34.7
2016-04-29T01:55:00Z,0000380,01000600,-000.05,0000.35,-000.10,-000.42,-000.40,-000.19,-000.13,0000.01,0000.15,26.7,00.4,0676.8,34.7
2016-04-29T01:56:00Z,0000380,01000600,0000.16,-000.12,-000.22,0000.19,-000.20,-000.13,0000.16,-000.03,-000.46,26.7,00.4,0676.7,34.7
2016-04-29T01:57:00Z,0000380,41000600,,,,,,,,,,,,0676.6,34.7
2016-04-29T01:58:00Z,0000380,61000600,,,,,,,,,,26.5,00.3,0675.8,34.7
2016-04-29T01:59:00Z,0000380,21000600,,,,,,,,,,26.5,00.3,0675.8,34.7
2016-04-29T02:00:00Z,0000380,21000600,,,,,,,,,,26.5,00.3,0675.8,34.7
2016-04-29T02:01:00Z,0000380,21000600,,,,,,,,,,26.5,00.3,0675.7,34.7
2016-04-29T02:02:00Z,0000380,21000600,,,,,,,,,,26.5,00.3,0675.7,34.7
2016-04-29T02:03:00Z,0000380,61000600,,,,,,,,,,26.6,00.3,0675.7,34.7
2016-04-29T02:04:00Z,0000380,41000600,0001.10,-000.48,-000.07,-000.25,0000.05,0000.16,-000.15,0000.12,-000.16,26.6,00.3,0676.6,34.7
2016-04-29T02:05:00Z,0000380,01000600,-000.07,-000.28,0000.07,0000.72,-000.06,0000.00,-000.08,-000.08,0000.12,26.6,00.2,0676.6,34.7
2016-04-29T02:06:00Z,0000380,01000600,0000.52,0000.02,-000.47,0000.06,0000.19,-000.20,-000.03,-000.02,0000.16,26.6,00.3,0676.6,34.7
2016-04-29T02:07:00Z,0000380,01000600,0000.63,0000.46,-000.12,0000.11,-000.06,0000.03,-000.07,-000.10,-000.28,26.6,00.2,0676.5,34.7
2016-04-29T02:08:00Z,0000380,01000600,0000.56,-000.16,0000.10,-000.27,-000.19,0000.39,-000.16,-000.10,0000.21,26.6,00.2,0676.5,34.7
2016-04-29T02:09:00Z,0000380,01000600,0000.09,0000.24,0000.21,0000.22,0000.02,0000.45,0000.25,0000.15,-000.16,26.6,00.2,0676.5,34.7
2016-04-29T02:10:00Z,0000380,01000600,0000.11,-000.10,0000.00,-000.41,-000.34,0000.25,0000.00,-000.01,0000.02,26.5,00.2,0676.5,34.7
2016-04-29T02:11:00Z,0000380,01000600,0000.08,0000.01,-000.03,-000.31,-000.16,0000.09,-000.22,0000.08,-000.06,26.5,00.2,0676.4,34.7
2016-04-29T02:12:00Z,0000380,01000600,-000.05,0000.36,0000.06,-000.25,-000.31,0000.25,0000.23,0000.10,0000.40,26.5,00.2,0676.4,34.7
2016-04-29T02:13:00Z,0000380,01000600,0000.00,0000.81,0000.28,-000.08,-000.09,0000.05,0000.08,-000.11,-000.52,26.5,00.2,0676.4,34.7
2016-04-29T02:14:00Z,0000380,01000600,0000.22,0000.08,-000.08,-000.16,0000.00,0000.44,-000.15,-000.13,0000.35,26.5,00.2,0676.4,34.7
2016-04-29T02:15:00Z,0000380,01000600,0000.42,0000.07,0000.46,-000.48,0000.40,0000.23,-000.03,0000.18,-000.13,26.5,00.2,0676.4,34.8
2016-04-29T02:16:00Z,0000380,01000600,-000.14,0000.17,0000.20,-000.67,0000.00,-000.06,0000.13,-000.21,-000.02,26.5,00.2,0676.3,34.8
2016-04-29T02:17:00Z,0000380,01000600,0000.39,0000.05,0000.07,0000.05,-000.19,0000.28,-000.26,0000.02,-000.03,26.5,00.1,0676.3,34.8
2016-04-29T02:18:00Z,0000380,01000600,0000.36,-000.31,0000.57,-000.89,0000.17,0000.20,0000.02,0000.06,-000.23,26.5,00.2,0676.3,34.8
2016-04-29T02:19:00Z,0000380,01000600,-000.06,-000.13,0000.00,0000.19,0000.19,0000.20,-000.17,0000.06,0000.47,26.5,00.1,0676.3,34.8
2016-04-29T02:20:00Z,0000380,01000600,0000.28,0000.09,0000.50,-000.77,0000.26,0000.58,0000.24,-000.04,-000.34,26.5,00.2,0676.3,34.8
2016-04-29T02:21:00Z,0000380,01000600,-000.21,-000.03,-000.24,-000.45,0000.31,0000.17,-000.09,-000.14,-000.03,26.6,00.2,0676.2,34.8
2016-04-29T02:22:00Z,0000380,01000600,0000.52,-000.43,0000.14,-000.22,0000.30,-000.03,0000.01,0000.00,-000.27,26.6,00.2,0676.2,34.8
2016-04-29T02:23:00Z,0000380,01000600,-001.05,0000.05,0000.36,-000.38,0000.05,0000.13,0000.12,0000.17,0000.40,26.6,00.1,0676.2,34.8
2016-04-29T02:24:00Z,0000380,01000600,0000.24,0000.23,-000.14,-000.22,0000.06,0000.53,0000.08,-000.14,0000.14,26.6,00.1,0676.2,34.8
2016-04-29T02:25:00Z,0000380,01000600,0000.57,0000.63,-000.41,0000.05,-000.23,-000.06,0000.08,0000.02,-000.12,26.6,00.1,0676.2,34.8
2016-04-29T02:26:00Z,0000380,01000600,0000.48,0000.13,0000.13,-000.06,0000.12,0000.22,0000.24,0000.24,-000.02,26.5,00.1,0676.2,34.8
2016-04-29T02:27:00Z,0000380,01000600,0000.69,0000.03,-000.24,-000.61,-000.59,-000.03,-000.25,-000.02,0000.07,26.6,00.1,0676.2,34.8
2016-04-29T02:28:00Z,0000380,01000600,-000.03,0000.38,0000.03,-000.48,0000.12,0000.06,0000.06,-000.12,-000.09,26.5,00.1,0676.1,34.8
2016-04-29T02:29:00Z,0000380,01000600,-000.73,-000.04,0000.00,-000.56,0000.14,0000.22,0000.05,0000.05,-000.21,26.5,00.1,0676.1,34.8
2016-04-29T02:30:00Z,0000380,01000600,-000.25,0000.67,-000.10,-000.61,0000.30,0000.33,0000.03,-000.05,0000.13,26.5,00.0,0676.1,34.7
2016-04-29T02:31:00Z,0000380,01000600,0000.13,0000.39,-000.09,0000.11,0000.44,0000.06,-000.01,0000.09,0000.04,26.5,00.0,0676.1,34.7
2016-04-29T02:32:00Z,0000380,01000600,0000.17,-000.19,-000.36,-000.20,0000.19,-000.09,-000.04,-000.03,-000.18,26.5,00.1,0676.1,34.7
2016-04-29T02:33:00Z,0000380,01000600,0000.09,-000.02,-000.19,-000.17,-000.22,0000.20,-000.13,-000.05,0000.11,26.5,00.1,0676.1,34.7
2016-04-29T02:34:00Z,0000380,01000600,0000.42,-000.06,-000.37,0000.06,0000.25,-000.02,0000.06,0000.01,0000.07,26.5,00.1,0676.1,34.7
2016-04-29T02:35:00Z,0000380,01000600,0000.20,0000.06,-000.45,-000.22,-000.20,0000.31,0000.01,-000.10,0000.04,26.5,00.0,0676.1,34.7
2016-04-29T02:36:00Z,0000380,01000600,0000.00,-000.28,-000.10,-000.38,0000.11,0000.34,-000.01,-000.12,-000.29,26.5,00.0,0676.0,34.7
2016-04-29T02:37:00Z,0000380,01000600,0000.67,-000.26,-000.17,0000.06,-000.08,0000.44,-000.26,0000.19,0000.19,26.5,00.0,0676.0,34.7
2016-04-29T02:38:00Z,0000380,01000600,0000.43,-000.41,-000.29,-000.56,-000.11,-000.45,0000.24,0000.00,0000.17,26.5,00.0,0676.0,34.7
2016-04-29T02:39:00Z,0000380,01000600,-000.20,0000.14,-000.09,-000.47,-000.28,0000.44,0000.07,-000.06,-000.18,26.5,00.0,0675.9,34.7
2016-04-29T02:40:00Z,0000380,01000600,0000.00,0000.30,0000.19,-000.19,-000.05,0000.25,0000.03,-000.04,0000.05,26.5,00.0,0675.9,34.7
2016-04-29T02:41:00Z,0000380,01000600,-000.04,0000.39,-000.33,-000.09,-000.02,-000.28,-000.14,0000.10,-000.06,26.5,00.0,0675.9,34.7
2016-04-29T02:42:00Z,0000380,01000600,0000.86,0000.11,0000.03,0000.17,-000.20,0000.14,0000.08,0000.09,-000.02,26.5,00.0,0675.8,34.7
2016-04-29T02:43:00Z,0000380,01000600,0000.21,-000.07,-000.32,0000.05,0000.17,0000.05,-000.08,-000.02,0000.07,26.5,00.0,0675.8,34.7
2016-04-29T02:44:00Z,0000380,01000600,0000.39,-000.03,-000.18,0000.19,0000.02,0000.00,-000.21,-000.11,-000.11,26.5,00.0,0675.8,34.7
2016-04-29T02:45:00Z,0000380,01000600,0000.13,-000.11,-000.17,-000.05,0000.22,0000.50,0000.34,-000.03,-000.09,26.5,00.0,0675.7,34.8
2016-04-29T02:46:00Z,0000380,01000600,0000.21,0000.13,-000.16,0000.44,0000.05,0000.17,-000.17,0000.17,0000.25,26.5,00.0,0675.7,34.8
2016-04-29T02:47:00Z,0000380,01000600,0000.00,-000.12,0000.21,-000.66,0000.02,0000.22,0000.23,-000.25,0000.11,26.5,00.0,0675.7,34.8
2016-04-29T02:48:00Z,0000380,01000600,0000.16,-000.16,-000.29,0000.28,0000.14,-000.16,-000.04,0000.17,-000.13,26.5,00.0,0675.6,34.8
2016-04-29T02:49:00Z,0000380,01000600,-000.59,-000.41,-000.28,-000.23,-000.34,0000.02,-000.04,-000.11,0000.33,26.5,00.0,0675.6,34.8
2016-04-29T02:50:00Z,0000380,01000600,0000.76,0000.12,0000.00,-000.02,0000.02,0000.00,-000.15,0000.12,-000.44,26.5,00.0,0675.5,34.8
2016-04-29T02:51:00Z,0000380,01000600,-000.09,-000.41,-000.14,-000.17,-000.20,0000.44,0000.28,-000.06,0000.04,26.5,00.0,0675.5,34.8
2016-04-29T02:52:00Z,0000380,01000600,0000.61,-000.42,0000.33,-000.13,-000.17,0000.22,-000.27,0000.12,-000.04,26.5,00.0,0675.4,34.8
2016-04-29T02:53:00Z,0000380,01000600,0000.11,0000.11,-000.05,-000.38,-000.12,0000.11,0000.24,0000.03,0000.20,26.5,00.0,0675.4,34.8
2016-04-29T02:54:00Z,0000380,01000600,-000.24,-000.19,0000.08,0000.19,0000.22,0000.22,-000.00,-000.10,0000.37,26.5,00.0,0675.4,34.8
2016-04-29T02:55:00Z,0000380,01000600,-000.34,0000.16,-000.26,0000.00,0000.22,0000.25,0000.07,0000.14,-000.14,26.5,00.0,0675.3,34.8
2016-04-29T02:56:00Z,0000380,01000600,-000.36,0000.12,0000.22,-000.13,-000.22,0000.09,-000.05,-000.02,-000.15,26.5,00.0,0675.3,34.8
2016-04-29T02:57:00Z,0000380,41000600,,,,,,,,,,,,0675.2,34.8
2016-04-29T02:58:00Z,0000380,61000600,,,,,,,,,,26.3,00.0,0674.4,34.8
2016-04-29T02:59:00Z,0000380,21000600,,,,,,,,,,26.3,00.0,0674.3,34.8
2016-04-29T03:00:00Z,0000380,21000600,,,,,,,,,,26.3,00.0,0674.3,34.7
2016-04-29T03:01:00Z,0000380,21000600,,,,,,,,,,26.3,00.0,0674.3,34.7
2016-04-29T03:02:00Z,0000380,21000600,,,,,,,,,,26.3,00.0,0674.3,34.7
2016-04-29T03:03:00Z,0000380,61000600,,,,,,,,,,26.4,00.0,0674.3,34.7
2016-04-29T03:04:00Z,0000380,41000600,-000.04,0000.11,-000.05,-000.02,0000.33,0000.03,-000.03,-000.13,0000.03,26.4,00.0,0674.9,34.7
2016-04-29T03:05:00Z,0000380,01000600,-000.05,0000.14,0000.16,0000.05,0000.20,-000.30,0000.02,0000.08,0000.01,26.4,00.0,0674.9,34.7
2016-04-29T03:06:00Z,0000380,01000600,0000.13,-000.14,-000.21,-000.36,0000.09,0000.20,-000.10,0000.10,0000.19,26.5,00.0,0674.8,34.7
2016-04-29T03:07:00Z,0000380,01000600,-000.09,-000.21,0000.05,-000.34,0000.03,0000.13,-000.08,-000.09,-000.35,26.5,00.0,0674.8,34.7
2016-04-29T03:08:00Z,0000380,01000600,-000.16,-000.48,-000.17,0000.47,0000.47,0000.14,0000.21,-000.05,0000.00,26.5,00.0,0674.8,34.7
2016-04-29T03:09:00Z,0000380,01000600,0000.29,-000.04,-000.36,0000.42,0000.33,-000.05,-000.17,-000.01,0000.11,26.5,00.0,0674.7,34.7
2016-04-29T03:10:00Z,0000380,01000600,0000.23,-000.11,-000.02,0000.63,-000.23,-000.08,0000.05,0000.02,0000.04,26.5,00.0,0674.6,34.7
2016-04-29T03:11:00Z,0000380,01000600,-000.47,0000.02,-000.22,0001.00,-000.17,-000.16,0000.07,0000.24,0000.13,26.5,00.0,0674.6,34.7
2016-04-29T03:12:00Z,0000380,01000600,-000.14,0000.50,0000.21,0000.17,-000.12,-000.06,0000.25,-000.08,-000.12,26.5,00.0,0674.6,34.7